Location: Platte
(43.3870°N, 98.8440°W)
Time: 13:05:22
(UTC-05:00)

Landsat 7 - Visible Passes

Search period start: 23 July 2014 00:00
Search period end: 02 August 2014 00:00
Orbit: 702 x 703 km, 98.2° (Epoch: 23 July)

Date Brightness Start Highest point End Pass type
(mag) Time Alt. Az. Time Alt. Az. Time Alt. Az.
23 Jul 5.5 00:09:28 20° SW 00:11:18 25° W 00:15:13 10° NW visible
23 Jul 3.8 23:13:54 32° SSE 23:16:07 86° WSW 23:20:54 10° NNW visible
24 Jul 5.0 22:18:20 15° ESE 22:21:22 29° ENE 22:25:25 10° N visible
24 Jul 5.1 23:57:14 25° SW 23:59:00 33° W 00:03:17 10° NNW visible
25 Jul 3.8 23:01:40 31° SSE 23:03:55 72° ENE 23:08:41 10° N visible
26 Jul 6.2 00:40:33 11° WSW 00:42:11 13° W 00:44:13 10° WNW visible
26 Jul 5.3 22:06:06 12° ESE 22:09:17 22° ENE 22:12:56 10° NNE visible
26 Jul 4.7 23:45:00 30° SSW 23:46:45 43° W 23:51:17 10° NNW visible
27 Jul 4.1 22:49:26 28° SE 22:51:45 55° ENE 22:56:24 10° N visible
28 Jul 5.9 00:28:20 15° WSW 00:29:50 17° W 00:32:52 10° NW visible
28 Jul 5.6 21:54:06 10° ESE 21:57:12 18° ENE 22:00:20 10° NNE visible
28 Jul 4.2 23:32:46 36° SSW 23:34:30 57° W 23:39:12 10° NNW visible
29 Jul 4.4 22:37:13 24° SE 22:39:36 42° ENE 22:44:05 10° N visible
30 Jul 5.6 00:16:06 19° WSW 00:17:30 22° W 00:21:11 10° NW visible
30 Jul 5.8 21:42:48 10° E 21:45:10 14° ENE 21:47:32 10° NNE visible
30 Jul 3.9 23:20:33 40° S 23:22:16 76° WSW 23:27:03 10° NNW visible
31 Jul 4.8 22:25:00 20° ESE 22:27:29 32° ENE 22:31:42 10° N visible
01 Aug 5.3 00:03:54 25° WSW 00:05:12 28° W 00:09:19 10° NW visible
01 Aug 6.0 21:32:07 10° ENE 21:33:08 11° ENE 21:34:09 10° NE visible
01 Aug 3.7 23:08:21 40° SSE 23:10:04 83° ENE 23:14:51 10° NNW visible
